Weather History for Salzburg Flughafen, Austria

Change the Weather History Date:

Monday, April 8, 2013

  Actual Average Record
Temperature  
Mean Temperature 41 °F -  
Max Temperature 53 °F 58 °F 68 °F (2011)
Min Temperature 29 °F 39 °F 24 °F (2003)
Degree Days  
Heating Degree Days 24    
Moisture  
Dew Point 32 °F    
Average Humidity 72    
Maximum Humidity 100    
Minimum Humidity 30    
Precipitation  
Precipitation 0.00 in 0.13 in - ()
Sea Level Pressure  
Sea Level Pressure 29.76 in    
Wind  
Wind Speed 3 mph ()    
Max Wind Speed 9 mph    
Max Gust Speed -    
Visibility 5.7 miles    
Events Fog    
Averages and records for this station are not official NWS values.
T = Trace of Precipitation, MM = Missing Value Source: Averaged Metar Reports

Daily Weather History Graph

Daily Weather History Graph

Search for Another Location

Airport:

Trip Planner

Search our weather history database for the weather conditions in past years. The results will help you decide how hot, cold, wet, or windy it might be!

Date:

Astronomy

Apr. 08, 2013 Rise Set
Actual Time 6:32 AM CEST 7:47 PM CEST
Civil Twilight 6:00 AM CEST 8:19 PM CEST
Nautical Twilight 5:22 AM CEST 8:58 PM CEST
Astronomical Twilight 4:41 AM CEST 9:39 PM CEST
Moon 5:21 AM CEST (4/8) 5:59 PM CEST (4/8)
Length of Visible Light 14h 19m
Length of Day
13h 15m
Waning Crescent, 4% of the Moon is Illuminated
Apr 8
Waning Crescent
Apr 10
New
Apr 18
First Quarter
Apr 25
Full
May 2
Last Quarter

Hourly Weather History & Observations

Time (CEST) Temp. Windchill Dew Point Humidity Pressure Visibility Wind Dir Wind Speed Gust Speed Precip Events Conditions
12:20 AM 33.8 °F 30.8 °F 33.8 °F 100% 29.98 in 2.2 mi South 3.5 mph - N/A   Partly Cloudy
12:50 AM 33.8 °F - 33.8 °F 100% 29.95 in - Variable 1.2 mph - N/A   Mostly Cloudy
1:20 AM 32.0 °F - 32.0 °F 100% 29.95 in - Calm Calm - N/A   Partly Cloudy
1:50 AM 32.0 °F - 32.0 °F 100% 29.95 in 1.7 mi Variable 2.3 mph - N/A Fog Light Freezing Fog
2:00 AM 32 °F - 32 °F 100% 30.01 in 2 mi 2.2 mph - -  
2:20 AM 32.0 °F - 32.0 °F 100% 29.95 in - Variable 2.3 mph - N/A   Mostly Cloudy
2:50 AM 32.0 °F - 32.0 °F 100% 29.92 in 2.5 mi South 2.3 mph - N/A   Mostly Cloudy
3:20 AM 32.0 °F - 32.0 °F 100% 29.92 in 3.1 mi Variable 1.2 mph - N/A   Mostly Cloudy
3:50 AM 32.0 °F - 30.2 °F 93% 29.89 in 3.1 mi Variable 2.3 mph - N/A   Scattered Clouds
4:20 AM 32.0 °F 28.7 °F 30.2 °F 93% 29.89 in 3.7 mi SE 3.5 mph - N/A   Scattered Clouds
4:50 AM 30.2 °F - 30.2 °F 100% 29.86 in 2.8 mi Variable 2.3 mph - N/A   Partly Cloudy
5:00 AM 31 °F - 31 °F 100% 29.94 in 3 mi 2.2 mph - -   Mist
5:20 AM 30.2 °F 26.7 °F 30.2 °F 100% 29.86 in 2.8 mi SE 3.5 mph - N/A   Partly Cloudy
5:50 AM 30.2 °F - 28.4 °F 93% 29.83 in 3.1 mi Calm Calm - N/A   Partly Cloudy
6:20 AM 30.2 °F - 28.4 °F 93% 29.83 in 3.1 mi Variable 2.3 mph - N/A   Scattered Clouds
6:50 AM 30.2 °F 25.4 °F 28.4 °F 93% 29.80 in 3.1 mi SSE 4.6 mph - N/A   Scattered Clouds
7:20 AM 30.2 °F 26.7 °F 28.4 °F 93% 29.80 in 4.3 mi South 3.5 mph - N/A   Partly Cloudy
7:50 AM 32.0 °F - 32.0 °F 100% 29.77 in 5.0 mi Variable 2.3 mph - N/A   Partly Cloudy
8:00 AM 32 °F - 32 °F 98% 29.86 in 5 mi 2.2 mph - -   Scattered Clouds
8:20 AM 33.8 °F - 30.2 °F 87% 29.77 in 6.2 mi Variable 2.3 mph - N/A   Scattered Clouds
8:50 AM 37.4 °F - 32.0 °F 81% 29.77 in 6.2 mi Variable 2.3 mph - N/A   Scattered Clouds
9:20 AM 39.2 °F 37.0 °F 30.2 °F 70% 29.77 in 6.2 mi South 3.5 mph - N/A   Scattered Clouds
9:50 AM 39.2 °F - 32.0 °F 75% 29.77 in 6.2 mi Variable 2.3 mph - N/A   Mostly Cloudy
10:20 AM 41.0 °F - 30.2 °F 65% 29.77 in 6.2 mi Variable 2.3 mph - N/A   Mostly Cloudy
10:50 AM 42.8 °F 40.1 °F 30.2 °F 61% 29.74 in 6.2 mi ESE 4.6 mph - N/A   Mostly Cloudy
11:00 AM 43 °F - 30 °F 49% 29.79 in 12 mi ESE 4.5 mph - -   Scattered Clouds
11:20 AM 44.6 °F 43.1 °F 30.2 °F 57% 29.74 in 6.2 mi Variable 3.5 mph - N/A   Mostly Cloudy
11:50 AM 44.6 °F 42.2 °F 28.4 °F 53% 29.74 in 6.2 mi Variable 4.6 mph - N/A   Mostly Cloudy
12:20 PM 46.4 °F 45.2 °F 28.4 °F 50% 29.74 in 6.2 mi Variable 3.5 mph - N/A   Mostly Cloudy
12:50 PM 48.2 °F - 30.2 °F 50% 29.71 in - Variable 3.5 mph - N/A   Clear
1:20 PM 50.0 °F - 30.2 °F 47% 29.71 in - Variable 4.6 mph - N/A   Clear
1:50 PM 50.0 °F - 28.4 °F 43% 29.68 in - Variable 3.5 mph - N/A   Clear
2:00 PM 50 °F - 28 °F 30% 29.70 in 19 mi 4.5 mph - -   Scattered Clouds
2:20 PM 51.8 °F - 28.4 °F 41% 29.68 in - North 5.8 mph - N/A   Clear
2:50 PM 51.8 °F - 30.2 °F 44% 29.65 in - Variable 3.5 mph - N/A   Clear
3:20 PM 51.8 °F - 30.2 °F 44% 29.62 in - North 6.9 mph - N/A   Clear
3:50 PM 53.6 °F - 32.0 °F 44% 29.65 in - WNW 6.9 mph - N/A   Clear
4:20 PM 51.8 °F - 32.0 °F 47% 29.62 in - NW 8.1 mph - N/A   Clear
4:50 PM 51.8 °F - 32.0 °F 47% 29.65 in - NNW 9.2 mph - N/A   Clear
5:00 PM 52 °F - 32 °F 34% 29.65 in 25 mi NNW 8.9 mph - -   Scattered Clouds
5:20 PM 51.8 °F - 33.8 °F 50% 29.65 in - NW 9.2 mph - N/A   Clear
5:50 PM 50.0 °F - 33.8 °F 54% 29.65 in - NW 9.2 mph - N/A   Clear
6:20 PM 50.0 °F - 33.8 °F 54% 29.65 in - NW 9.2 mph - N/A   Clear
6:50 PM 48.2 °F - 32.0 °F 54% 29.65 in 6.2 mi NNW 8.1 mph - N/A   Mostly Cloudy
7:20 PM 48.2 °F - 32.0 °F 54% 29.65 in 6.2 mi NNW 6.9 mph - N/A   Mostly Cloudy
7:50 PM 48.2 °F - 33.8 °F 58% 29.65 in 6.2 mi NNW 5.8 mph - N/A   Mostly Cloudy
8:00 PM 47 °F - 33 °F 46% 29.68 in 16 mi NNW 6.7 mph - -   Overcast
8:20 PM 46.4 °F 45.2 °F 35.6 °F 66% 29.65 in 6.2 mi West 3.5 mph - N/A   Mostly Cloudy
8:50 PM 44.6 °F 42.2 °F 35.6 °F 71% 29.65 in 6.2 mi NW 4.6 mph - N/A   Mostly Cloudy
9:20 PM 44.6 °F 42.2 °F 33.8 °F 66% 29.65 in 6.2 mi NW 4.6 mph - N/A   Mostly Cloudy
9:50 PM 42.8 °F - 37.4 °F 81% 29.65 in 6.2 mi Variable 1.2 mph - N/A   Mostly Cloudy
10:20 PM 41.0 °F - 37.4 °F 87% 29.65 in 6.2 mi SW 2.3 mph - N/A   Mostly Cloudy
10:50 PM 41.0 °F 39.0 °F 35.6 °F 81% 29.65 in 6.2 mi South 3.5 mph - N/A   Mostly Cloudy
11:20 PM 41.0 °F - 35.6 °F 81% 29.65 in 6.2 mi Variable 1.2 mph - N/A   Mostly Cloudy
11:50 PM 41.0 °F 39.0 °F 35.6 °F 81% 29.68 in 6.2 mi South 3.5 mph - N/A   Overcast